sat.trackr.live / text

‹ back to catalog

STARLINK-34549

NORAD 65017 · 2025-161C

PAYLOAD ACTIVE UNKNOWN

§ Identity

Operator
Country
US
Launch date
2025-07-30
Launch site
AFWTR
Launch vehicle
Mass (kg)
RCS (m²)

Purposes: comms

External: N2YO · Heavens-Above · Gunter

§ Orbital elements

Epoch: 2026-05-24T20:10:11.567424Z

Period
94.11 min
Inclination
53.1582°
Eccentricity
0.0000888
Mean motion
15.30192353 rev/d
Perigee alt
474.6 km
Apogee alt
475.8 km
Semi-major
6,853.4 km
B*
-6.9236e-5
RAAN
300.1503°
Arg perigee
64.7351°
Mean anomaly
295.3742°
Rev number
4,710

§ Raw data

STARLINK-345491 65017U 25161C   26144.84041166 -.00002408  00000+0 -69236-4 0  99962 65017  53.1582 300.1503 0000888  64.7351 295.3742 15.30192353 47103

JSON: /api/v1/satellites/65017 · /tle

For live sub-satellite position, see the globe view (requires WebGL).

§ Visibility from observer

Set your observer location to see the next 7 days of passes ≥ 10°. The values pass through the URL so the page stays shareable.

No JS? Fill the form by hand. The geolocation button needs JavaScript.